Regional Weather Roundup
Issued by NWS

Home | Current Version | Previous Version | Text Only | Print | Product List | Glossary On
Versions: 1 2 3 4 5 6 7 8 9 10 11 12 13 14 15 16 17 18 19 20 21 22 23 24 25 26 27
000
ASUS45 KBOU 171407
RWRCO

WEATHER ROUNDUP FOR COLORADO
NATIONAL WEATHER SERVICE DENVER/BOULDER CO
700 AM MST TUE JAN 17 2017

NOTE: "FAIR" INDICATES FEW OR NO CLOUDS BELOW 12000 FEET WITH NO
SIGNIFICANT WEATHER AND/OR OBSTRUCTIONS TO VISIBILITY.

COZ001>005-013-030-031-171500-
...NORTHWEST COLORADO...

CITY           SKY/WX    TMP DP  RH WIND       PRES   REMARKS
CRAIG          CLOUDY    15  12  88 S3        30.20S
HAYDEN         CLOUDY    12   9  85 SW5       30.18R WCI   4
MEEKER         CLOUDY    15  11  83 SW3       30.19R
MOUNT WERNER   NOT AVBL
STEAMBOAT SPGS CLOUDY    12   9  89 NW5       30.17S WCI   4
WALDEN           N/A    N/A N/A N/A CALM      30.13S VSB 1/2
$$

COZ006>008-011-171500-
...WEST CENTRAL VALLEYS...

CITY           SKY/WX    TMP DP  RH WIND       PRES   REMARKS
GRAND JUNCTION FAIR      25  21  85 CALM      30.18R
MONTROSE       CLOUDY    30  28  92 NW3       30.18R
EAGLE          CLOUDY    25  21  86 CALM      30.18S
RIFLE          MOCLDY    18  14  84 E6        30.20R WCI  10
DELTA          CLOUDY    34  29  82 N3        30.18R
NUCLA          CLOUDY    32  28  86 N3        30.18S
$$

COZ017>023-064>068-171500-
...SOUTHWEST COLORADO...

CITY           SKY/WX    TMP DP  RH WIND       PRES   REMARKS
DURANGO        CLOUDY    30  28  92 NE5       30.11S WCI  25
CORTEZ         CLOUDY    33  32  96 CALM      30.12S
PAGOSA SPRINGS LGT SNOW  31  31 100 CALM      30.12S
TELLURIDE      CLOUDY    24  23  98 CALM      30.14R FOG
WOLF CREEK PAS CLOUDY    18  18 100 SW10G21   30.15F WCI   6
$$

COZ009-010-012-014-032>034-037-058>063-171500-
...CENTRAL COLORADO...

CITY           SKY/WX    TMP DP  RH WIND       PRES   REMARKS
ASPEN          MOCLDY    16  13  88 S6        30.13R WCI   7
BUENA VISTA    FOG       17  15  92 W5        30.09S VSB 1/4 WCI  10
COPPER MTN     CLOUDY    23  18  80 MISG      30.11R HAZE
BERTHOUD PASS  NOT AVBL
COTTONWOOD PAS FAIR      27  21  80 W5        30.08R WCI  21
GUNNISON       LGT SNOW  23  22  96 N5        30.14R FOG     WCI  17
KREMMLING      CLOUDY    21  18  86 CALM      30.18R
LEADVILLE      CLOUDY    14  12  92 N6        30.09R FOG     WCI   5
SALIDA         FAIR      26  23  90 NW7       30.15S WCI  18
SUNLIGHT       FAIR      18  18 100 SW9       30.15R FOG     WCI   6
WILKERSON PASS FAIR      21  14  73 NW9G16    30.09R WCI  11
$$

COZ069>075-171500-
...SAN LUIS VALLEY/SANGRE DE CRISTO MOUNTAINS...

CITY           SKY/WX    TMP DP  RH WIND       PRES   REMARKS
ALAMOSA        FOG       21  20  96 CALM      30.11S VSB 1/4
LA VETA PASS   CLOUDY    23  21  93 NE29G37   30.06S FOG     WCI   6
SAGUACHE       LGT SNOW  28  28 100 CALM      30.13R
$$

COZ035-036-038>040-171500-
...NORTHERN COLORADO FRONT RANGE...

CITY           SKY/WX    TMP DP  RH WIND       PRES   REMARKS
DENVER INTL AP FAIR      23  18  81 SW10      30.03S WCI  12
DMNS CITY PARK   N/A     21  20  93 E9        30.05S WCI  11
AURORA         PTCLDY    16  16  98 S9        30.04S WCI   5
FRONT RANGE AP PTCLDY    19  16  86 S7        30.04  WCI  10
ERIE MUNI ARPT FAIR      12  10  92 CALM      30.05S
BOULDER MUN AP FAIR      23  23 100 CALM      30.04R
CENTENNIAL     FAIR      21  18  88 S5        30.03S WCI  15
BROOMFIELD     PTCLDY    21  19  93 W3        30.04S
FORT COLLINS   FAIR      19  18  93 CALM      30.05S
LONGMONT       FAIR      15  11  87 CALM      30.07S
$$

COZ041-046-047-076>085-087-088-171500-
...PIKES PEAK/PALMER DIVIDE AND SOUTHERN FOOTHILLS...

CITY           SKY/WX    TMP DP  RH WIND       PRES   REMARKS
COLO. SPRINGS  FOG       29  28  96 S3        30.06R VSB 1/4
A. F. ACADEMY  CLOUDY    28  28  99 CALM      30.05R
SCHRIEVER AFB  NOT AVBL
ELLICOTT       CLOUDY   N/A N/A N/A SW6       30.04S
FALCON         FOG       28  28 100 SW8       30.06R VSB 1   WCI  19
FORT CARSON    FOG       30  28  93 SW5       30.06S VSB 1/2 WCI  25
LIMON          FAIR      12  11  95 CALM      30.07R
MONUMENT HILL  FOG       21  21 100 S8        30.05R VSB 1/2 WCI  12
TRINIDAD       FAIR      12   8  84 W10       30.07F FOG     WCI  -1
$$

COZ042>045-048>051-090-091-171500-
...NORTHEAST COLORADO...

CITY           SKY/WX    TMP DP  RH WIND       PRES   REMARKS
GREELEY ARPT   FAIR      15  13  91 W3        30.07S
AKRON          FAIR      18  11  74 SW8       30.05S WCI   8
BURLINGTON     FAIR      24  17  74 W8        30.09S WCI  15
WRAY           FAIR      14  10  85 W5        30.09R WCI   6
STERLING       FAIR      12  10  92 SW6       30.07R WCI   3
HOLYOKE        FAIR      12   5  73 W9        30.07R WCI   0
FORT MORGAN    FAIR      15  12  90 W7        30.06F WCI   5
$$

COZ086-089-092>099-171500-
...SOUTHEAST COLORADO...

CITY           SKY/WX    TMP DP  RH WIND       PRES   REMARKS
PUEBLO         FOG       26  24  92 CALM      30.07F VSB 3/4
LA JUNTA       FAIR      28  26  92 SW9       30.09F WCI  19
LAMAR          FAIR      29  26  89 SW10      30.10S WCI  20
SPRINGFIELD      N/A     23  22  96 W10       30.10S WCI  12
$$




USA.gov is the U.S. government's official web portal to all federal, state and local government web resources and services.